Regional Weather Roundup
Issued by NWS Raleigh/Durham, NC

Home | Current Version | Previous Version | Text Only | Print | Product List | Glossary On
Versions: 1 2 3 4 5 6 7 8 9 10 11 12 13 14 15 16 17 18 19 20 21 22 23 24 25 26 27 28 29 30 31 32 33 34 35 36 37 38 39 40
000
ASUS42 KRAH 272010
RWRRAH
NORTH CAROLINA WEATHER ROUNDUP
NATIONAL WEATHER SERVICE RALEIGH NC
300 PM EST SAT DEC 27 2014

NOTE: "FAIR" INDICATES FEW OR NO CLOUDS BELOW 12,000 FEET WITH NO
SIGNIFICANT WEATHER AND/OR OBSTRUCTIONS TO VISIBILITY.

NCZ001-053-055-056-065-067-272100-
WESTERN NORTH CAROLINA

CITY           SKY/WX    TMP DP  RH WIND       PRES   REMARKS
ASHEVILLE      CLOUDY    61  26  26 CALM      30.20F
JEFFERSON      PTSUNNY   61  18  19 SE3       30.20S
MORGANTON      MOSUNNY   61  38  41 CALM      30.23S
HICKORY        MOSUNNY   61  34  36 VRB3      30.19F
RUTHERFORDTON  CLOUDY    62  32  33 CALM      30.19F
MOUNT AIRY     SUNNY     63  34  34 SE5       30.20F
BOONE          PTSUNNY   61  25  25 SE6       30.21S
$$

NCZ021-022-025-041-071-084-088-272100-
CENTRAL NORTH CAROLINA

CITY           SKY/WX    TMP DP  RH WIND       PRES   REMARKS
CHARLOTTE      PTSUNNY   63  28  26 SW7       30.22F
GREENSBORO     MOSUNNY   62  33  33 SW6       30.19F
WINSTON-SALEM  SUNNY     61  31  32 SW5       30.21F
RALEIGH-DURHAM MOSUNNY   62  36  37 W6        30.24F
FORT BRAGG     SUNNY     63  34  34 W5        30.22F
FAYETTEVILLE   SUNNY     63  37  38 S6        30.22F
BURLINGTON     SUNNY     63  31  30 SW7       30.20F
LAURINBURG     SUNNY     62  39  42 SW6       30.24F
$$

NCZ011-015-027-028-043-044-047-080-103-272100-
NORTHEASTERN NORTH CAROLINA

CITY           SKY/WX    TMP DP  RH WIND       PRES   REMARKS
ROCKY MT-WILSO SUNNY     61  38  42 SW7       30.24R
GREENVILLE     SUNNY     61  37  41 S8        30.25S
WASHINGTON     SUNNY     60  37  42 SW5       30.25S
ELIZABETH CITY SUNNY     62  37  39 S8        30.23F
MANTEO         SUNNY     55  41  58 S7        30.25R
CAPE HATTERAS  SUNNY     57  42  57 CALM      30.25F
$$

NCZ078-087-090-091-093-098-101-272100-
SOUTHEASTERN NORTH CAROLINA

CITY           SKY/WX    TMP DP  RH WIND       PRES   REMARKS
LUMBERTON      SUNNY     64  38  38 SW3       30.23F
GOLDSBORO      SUNNY     63  40  43 S5        30.22F
KINSTON        SUNNY     63  36  36 SW7       30.25S
KENANSVILLE    SUNNY     63  33  33 SW3       30.25F
NEW BERN       SUNNY     63  41  44 E3        30.25F
CHERRY POINT   SUNNY     64  42  44 S8        30.25F
BEAUFORT       SUNNY     58  41  53 S8        30.25S
JACKSONVILLE   SUNNY     61  43  51 SE8       30.25S
WILMINGTON     SUNNY     63  44  50 SE7       30.24F
$$




USA.gov is the U.S. government's official web portal to all federal, state and local government web resources and services.